| time (UTC) | temp F | wind direction | speed knots | gust knots | rain 1hr in | rain 24hr in | rain mn in | humidity % | barometer mb |
| 20260906113510 | 70 | 37 | 0.9 | 1.7 | 0.00 | 0.47 | 0.01 | 97 | 1012.8 |
| 20260906113027 | 70 | 221 | 0.0 | 1.7 | 0.00 | 0.47 | 0.01 | 97 | 1012.8 |
| 20260906112511 | 70 | 23 | 0.0 | 0.9 | 0.00 | 0.47 | 0.01 | 97 | 1012.7 |
| 20260906112014 | 70 | 23 | 0.0 | 0.9 | 0.00 | 0.47 | 0.01 | 97 | 1012.7 |
| 20260906111528 | 70 | 20 | 0.0 | 0.9 | 0.00 | 0.47 | 0.01 | 97 | 1012.7 |
| 20260906111019 | 70 | 20 | 0.0 | 0.9 | 0.00 | 0.47 | 0.01 | 97 | 1012.7 |
| 20260906110515 | 70 | 20 | 0.0 | 0.9 | 0.00 | 0.47 | 0.01 | 97 | 1012.7 |
| 20260906110015 | 70 | 20 | 0.0 | 4.3 | 0.00 | 0.47 | 0.01 | 97 | 1012.5 |
| 20260906105506 | 70 | 32 | 0.0 | 4.3 | 0.00 | 0.47 | 0.01 | 97 | 1012.5 |
| 20260906105012 | 70 | 23 | 0.9 | 2.6 | 0.00 | 0.47 | 0.01 | 97 | 1012.5 |
| 20260906104518 | 70 | 30 | 0.9 | 2.6 | 0.00 | 0.47 | 0.01 | 97 | 1012.5 |
| 20260906104014 | 70 | 31 | 0.0 | 0.9 | 0.00 | 0.47 | 0.01 | 97 | 1012.5 |
| 20260906103508 | 70 | 31 | 0.0 | 2.6 | 0.00 | 0.47 | 0.01 | 97 | 1012.4 |
| 20260906103020 | 70 | 31 | 0.0 | 3.5 | 0.00 | 0.47 | 0.01 | 97 | 1012.4 |
| 20260906102510 | 70 | 18 | 0.0 | 3.5 | 0.00 | 0.47 | 0.01 | 97 | 1012.4 |
| 20260906102016 | 69 | 116 | 0.0 | 0.9 | 0.00 | 0.47 | 0.01 | 97 | 1012.4 |
| 20260906101529 | 69 | 128 | 0.0 | 0.0 | 0.00 | 0.47 | 0.01 | 97 | 1012.4 |
| 20260906101014 | 69 | 193 | 0.0 | 0.0 | 0.01 | 0.47 | 0.01 | 97 | 1012.3 |
| 20260906100514 | 68 | 193 | 0.0 | 0.0 | 0.01 | 0.47 | 0.01 | 97 | 1012.4 |
| 20260906100029 | 68 | 193 | 0.0 | 0.0 | 0.01 | 0.47 | 0.01 | 97 | 1012.3 |
| 20260906095513 | 68 | 193 | 0.0 | 0.0 | 0.01 | 0.47 | 0.01 | 96 | 1012.3 |
| 20260906095021 | 68 | 193 | 0.0 | 0.0 | 0.01 | 0.47 | 0.01 | 96 | 1012.2 |
| 20260906094524 | 68 | 193 | 0.0 | 0.0 | 0.01 | 0.47 | 0.01 | 96 | 1012.2 |
| 20260906094007 | 69 | 193 | 0.0 | 0.0 | 0.01 | 0.47 | 0.01 | 96 | 1012.2 |
| 20260906093510 | 69 | 193 | 0.0 | 0.0 | 0.01 | 0.47 | 0.01 | 96 | 1012.2 |
| 20260906093019 | 69 | 193 | 0.0 | 0.0 | 0.01 | 0.47 | 0.01 | 96 | 1012.1 |
| 20260906092503 | 69 | 193 | 0.0 | 0.9 | 0.01 | 0.47 | 0.01 | 96 | 1012.1 |
| 20260906092003 | 69 | 193 | 0.0 | 0.9 | 0.01 | 0.47 | 0.01 | 96 | 1011.9 |
| 20260906091503 | 69 | 193 | 0.0 | 0.9 | 0.01 | 0.47 | 0.01 | 96 | 1011.8 |
| 20260906091003 | 69 | 193 | 0.0 | 0.9 | 0.00 | 0.46 | 0.00 | 96 | 1011.7 |
| 20260906090506 | 69 | 193 | 0.0 | 0.0 | 0.00 | 0.46 | 0.00 | 97 | 1011.7 |
| 20260906090007 | 69 | 193 | 0.0 | 0.9 | 0.00 | 0.46 | 0.00 | 97 | 1011.5 |
| 20260906085504 | 69 | 193 | 0.0 | 0.9 | 0.00 | 0.46 | 0.00 | 96 | 1011.5 |
| 20260906085003 | 70 | 181 | 0.0 | 0.9 | 0.00 | 0.46 | 0.00 | 96 | 1011.4 |
| 20260906084510 | 70 | 181 | 0.0 | 0.9 | 0.00 | 0.46 | 0.00 | 97 | 1011.4 |
| 20260906084009 | 70 | 107 | 0.0 | 0.9 | 0.00 | 0.46 | 0.00 | 97 | 1011.4 |
| 20260906083504 | 70 | 196 | 0.0 | 0.0 | 0.00 | 0.46 | 0.00 | 97 | 1011.3 |
| 20260906083036 | 70 | 196 | 0.0 | 0.0 | 0.00 | 0.46 | 0.00 | 97 | 1011.3 |
| 20260906082506 | 70 | 196 | 0.0 | 0.0 | 0.00 | 0.46 | 0.00 | 97 | 1011.4 |
| 20260906082012 | 69 | 196 | 0.0 | 0.0 | 0.00 | 0.46 | 0.00 | 96 | 1011.4 |
| 20260906081539 | 69 | 196 | 0.0 | 0.0 | 0.00 | 0.46 | 0.00 | 96 | 1011.4 |
| 20260906081003 | 69 | 196 | 0.0 | 0.0 | 0.00 | 0.46 | 0.00 | 97 | 1011.4 |
| 20260906080502 | 69 | 196 | 0.0 | 0.0 | 0.00 | 0.46 | 0.00 | 96 | 1011.3 |
| 20260906080005 | 69 | 196 | 0.0 | 0.0 | 0.00 | 0.46 | 0.00 | 96 | 1011.4 |
| 20260906075503 | 69 | 196 | 0.0 | 0.0 | 0.00 | 0.46 | 0.00 | 96 | 1011.3 |
| 20260906075004 | 69 | 196 | 0.0 | 0.0 | 0.00 | 0.46 | 0.00 | 96 | 1011.4 |
| 20260906074504 | 69 | 196 | 0.0 | 0.0 | 0.00 | 0.46 | 0.00 | 96 | 1011.4 |
| 20260906074003 | 70 | 196 | 0.0 | 0.9 | 0.00 | 0.46 | 0.00 | 96 | 1011.4 |
| 20260906073506 | 70 | 196 | 0.0 | 0.9 | 0.00 | 0.46 | 0.00 | 96 | 1011.5 |
| 20260906073010 | 70 | 185 | 0.0 | 0.9 | 0.00 | 0.46 | 0.00 | 96 | 1011.7 |
| 20260906072504 | 70 | 72 | 0.0 | 0.9 | 0.00 | 0.46 | 0.00 | 96 | 1011.7 |
| 20260906072009 | 70 | 72 | 0.0 | 0.0 | 0.00 | 0.46 | 0.00 | 96 | 1011.6 |
| 20260906071515 | 70 | 72 | 0.0 | 0.9 | 0.00 | 0.46 | 0.00 | 96 | 1011.7 |
| 20260906071010 | 70 | 72 | 0.0 | 0.9 | 0.00 | 0.46 | 0.00 | 96 | 1011.6 |
| 20260906070524 | 70 | 72 | 0.0 | 0.9 | 0.00 | 0.46 | 0.00 | 96 | 1011.6 |
| 20260906070024 | 70 | 68 | 0.0 | 0.9 | 0.00 | 0.46 | 0.00 | 96 | 1011.6 |
| 20260906065503 | 70 | 68 | 0.0 | 0.9 | 0.00 | 0.46 | 0.00 | 96 | 1011.5 |
| 20260906065003 | 70 | 68 | 0.0 | 0.9 | 0.00 | 0.46 | 0.00 | 97 | 1011.4 |
| 20260906064506 | 70 | 68 | 0.0 | 0.9 | 0.00 | 0.46 | 0.00 | 96 | 1011.5 |
| 20260906064003 | 70 | 68 | 0.0 | 0.9 | 0.00 | 0.46 | 0.00 | 96 | 1011.6 |
| 20260906063503 | 70 | 69 | 0.0 | 0.9 | 0.00 | 0.46 | 0.00 | 96 | 1011.5 |
| 20260906063008 | 70 | 69 | 0.0 | 0.9 | 0.00 | 0.46 | 0.00 | 96 | 1011.5 |
| 20260906062508 | 70 | 69 | 0.0 | 0.9 | 0.00 | 0.46 | 0.00 | 96 | 1011.4 |
| 20260906062006 | 70 | 68 | 0.0 | 0.0 | 0.00 | 0.46 | 0.00 | 96 | 1011.4 |
| 20260906061516 | 70 | 68 | 0.0 | 0.9 | 0.00 | 0.46 | 0.00 | 96 | 1011.4 |
| 20260906061005 | 70 | 68 | 0.0 | 0.9 | 0.00 | 0.46 | 0.00 | 96 | 1011.4 |
| 20260906060506 | 70 | 68 | 0.0 | 0.9 | 0.00 | 0.46 | 0.00 | 96 | 1011.5 |
| 20260906060019 | 70 | 68 | 0.0 | 0.9 | 0.00 | 0.46 | 0.00 | 96 | 1011.6 |
| 20260906055509 | 70 | 68 | 0.0 | 0.9 | 0.00 | 0.46 | 0.00 | 96 | 1011.6 |
| 20260906055009 | 70 | 68 | 0.0 | 0.9 | 0.00 | 0.46 | 0.00 | 96 | 1011.8 |
| 20260906054523 | 70 | 68 | 0.0 | 0.9 | 0.00 | 0.46 | 0.00 | 96 | 1011.8 |
| 20260906054004 | 70 | 68 | 0.0 | 0.9 | 0.00 | 0.46 | 0.00 | 96 | 1011.8 |
| 20260906053501 | 70 | 68 | 0.0 | 0.9 | 0.00 | 0.46 | 0.00 | 96 | 1012.1 |
| 20260906053005 | 71 | 68 | 0.0 | 0.9 | 0.00 | 0.46 | 0.00 | 96 | 1012.1 |
| 20260906052507 | 71 | 68 | 0.0 | 0.9 | 0.00 | 0.46 | 0.00 | 96 | 1012.1 |
| 20260906052005 | 70 | 104 | 0.0 | 0.9 | 0.00 | 0.46 | 0.00 | 96 | 1012.1 |
| 20260906051510 | 70 | 104 | 0.0 | 0.9 | 0.00 | 0.46 | 0.00 | 96 | 1012.1 |
| 20260906051007 | 70 | 104 | 0.0 | 0.9 | 0.00 | 0.46 | 0.00 | 96 | 1012.3 |
| 20260906050508 | 71 | 104 | 0.0 | 0.9 | 0.00 | 0.46 | 0.00 | 97 | 1012.4 |
| 20260906050019 | 70 | 104 | 0.0 | 0.9 | 0.00 | 0.46 | 0.00 | 96 | 1012.5 |
| 20260906045510 | 70 | 104 | 0.0 | 0.9 | 0.00 | 0.46 | 0.00 | 96 | 1012.5 |
| 20260906045007 | 70 | 104 | 0.0 | 0.9 | 0.00 | 0.46 | 0.00 | 96 | 1012.6 |
| 20260906044528 | 70 | 104 | 0.0 | 0.9 | 0.00 | 0.46 | 0.00 | 96 | 1012.7 |
| 20260906044010 | 70 | 104 | 0.0 | 0.9 | 0.00 | 0.46 | 0.00 | 96 | 1012.7 |
| 20260906043513 | 70 | 104 | 0.0 | 0.9 | 0.00 | 0.46 | 0.00 | 96 | 1012.7 |
| 20260906043026 | 70 | 104 | 0.0 | 0.9 | 0.00 | 0.46 | 0.00 | 96 | 1012.7 |
| 20260906042503 | 70 | 104 | 0.0 | 0.9 | 0.00 | 0.46 | 0.00 | 96 | 1012.6 |
| 20260906042004 | 70 | 104 | 0.0 | 0.9 | 0.00 | 0.46 | 0.00 | 96 | 1012.8 |
| 20260906041507 | 70 | 104 | 0.0 | 0.9 | 0.00 | 0.46 | 0.00 | 96 | 1012.8 |
| 20260906041004 | 70 | 104 | 0.0 | 0.0 | 0.00 | 0.46 | 0.00 | 96 | 1012.8 |
| 20260906040506 | 70 | 104 | 0.0 | 0.9 | 0.00 | 0.46 | 0.00 | 96 | 1012.9 |
| 20260906040012 | 70 | 104 | 0.0 | 0.9 | 0.00 | 0.46 | 0.00 | 96 | 1012.8 |
| 20260906035508 | 70 | 104 | 0.0 | 0.9 | 0.00 | 0.46 | 0.46 | 96 | 1013.0 |
| 20260906035009 | 70 | 104 | 0.0 | 0.9 | 0.00 | 0.46 | 0.46 | 96 | 1013.0 |
| 20260906034517 | 70 | 104 | 0.0 | 0.0 | 0.00 | 0.46 | 0.46 | 96 | 1012.9 |
| 20260906034011 | 70 | 104 | 0.0 | 0.0 | 0.00 | 0.46 | 0.46 | 96 | 1013.0 |
| 20260906033508 | 71 | 104 | 0.0 | 0.0 | 0.00 | 0.46 | 0.46 | 96 | 1013.2 |
| 20260906033025 | 71 | 104 | 0.0 | 0.0 | 0.00 | 0.46 | 0.46 | 96 | 1013.1 |
| 20260906032510 | 71 | 104 | 0.0 | 0.0 | 0.00 | 0.46 | 0.46 | 96 | 1013.1 |
| 20260906032014 | 71 | 104 | 0.0 | 0.0 | 0.00 | 0.46 | 0.46 | 95 | 1013.1 |
| 20260906031543 | 71 | 104 | 0.0 | 0.9 | 0.00 | 0.46 | 0.46 | 95 | 1013.1 |
| 20260906031004 | 71 | 104 | 0.0 | 0.9 | 0.00 | 0.46 | 0.46 | 95 | 1013.2 |
| 20260906030503 | 71 | 104 | 0.0 | 0.9 | 0.00 | 0.46 | 0.46 | 95 | 1013.2 |
| 20260906030009 | 71 | 104 | 0.0 | 0.9 | 0.00 | 0.46 | 0.46 | 95 | 1013.1 |
| 20260906025506 | 71 | 104 | 0.0 | 0.9 | 0.00 | 0.46 | 0.46 | 95 | 1013.0 |
| 20260906025006 | 72 | 104 | 0.0 | 1.7 | 0.00 | 0.46 | 0.46 | 95 | 1013.0 |
| 20260906024514 | 72 | 104 | 0.0 | 3.5 | 0.00 | 0.46 | 0.46 | 96 | 1013.0 |
| 20260906024006 | 72 | 83 | 1.7 | 3.5 | 0.00 | 0.46 | 0.46 | 97 | 1012.9 |
| 20260906023507 | 71 | 45 | 0.9 | 1.7 | 0.00 | 0.46 | 0.46 | 96 | 1012.8 |
| 20260906023019 | 71 | 293 | 0.0 | 0.9 | 0.00 | 0.46 | 0.46 | 95 | 1012.8 |
| 20260906022508 | 71 | 293 | 0.0 | 0.9 | 0.00 | 0.46 | 0.46 | 95 | 1012.8 |
| 20260906022012 | 71 | 293 | 0.0 | 0.9 | 0.00 | 0.46 | 0.46 | 95 | 1012.7 |
| 20260906021526 | 71 | 293 | 0.0 | 0.9 | 0.00 | 0.46 | 0.46 | 95 | 1012.7 |
| 20260906021017 | 71 | 293 | 0.0 | 0.9 | 0.00 | 0.46 | 0.46 | 95 | 1012.7 |
| 20260906020512 | 71 | 293 | 0.0 | 0.9 | 0.00 | 0.46 | 0.46 | 95 | 1012.6 |
| 20260906020033 | 71 | 293 | 0.0 | 0.9 | 0.00 | 0.46 | 0.46 | 95 | 1012.6 |
| 20260906015506 | 71 | 293 | 0.0 | 0.9 | 0.00 | 0.46 | 0.46 | 95 | 1012.5 |
| 20260906015006 | 71 | 293 | 0.0 | 0.0 | 0.00 | 0.46 | 0.46 | 95 | 1012.4 |
| 20260906014511 | 72 | 293 | 0.0 | 0.9 | 0.00 | 0.46 | 0.46 | 95 | 1012.4 |
| 20260906014007 | 72 | 293 | 0.0 | 0.9 | 0.00 | 0.46 | 0.46 | 95 | 1012.4 |
| 20260906013507 | 72 | 47 | 0.0 | 2.6 | 0.00 | 0.46 | 0.46 | 95 | 1012.3 |
| 20260906013016 | 72 | 47 | 0.0 | 2.6 | 0.00 | 0.46 | 0.46 | 95 | 1012.6 |
| 20260906012507 | 72 | 81 | 0.0 | 1.7 | 0.00 | 0.46 | 0.46 | 95 | 1012.8 |
| 20260906012008 | 72 | 61 | 0.0 | 0.9 | 0.00 | 0.46 | 0.46 | 95 | 1012.7 |
| 20260906011521 | 72 | 226 | 0.0 | 0.9 | 0.00 | 0.46 | 0.46 | 95 | 1012.5 |
| 20260906011015 | 72 | 184 | 0.0 | 0.9 | 0.00 | 0.46 | 0.46 | 95 | 1012.4 |
| 20260906010513 | 72 | 140 | 0.9 | 0.9 | 0.00 | 0.46 | 0.46 | 95 | 1012.4 |
| 20260906010026 | 72 | 167 | 0.0 | 0.9 | 0.00 | 0.46 | 0.46 | 95 | 1012.3 |
| 20260906005514 | 72 | 210 | 0.0 | 0.0 | 0.00 | 0.46 | 0.46 | 95 | 1012.3 |
| 20260906005012 | 72 | 210 | 0.0 | 0.9 | 0.00 | 0.46 | 0.46 | 94 | 1012.2 |
| 20260906004528 | 72 | 210 | 0.0 | 0.9 | 0.00 | 0.46 | 0.46 | 94 | 1012.1 |
| 20260906004004 | 72 | 209 | 0.0 | 1.7 | 0.00 | 0.46 | 0.46 | 94 | 1012.1 |
| 20260906003506 | 72 | 231 | 0.0 | 1.7 | 0.00 | 0.46 | 0.46 | 94 | 1012.1 |
| 20260906003020 | 73 | 233 | 0.0 | 1.7 | 0.00 | 0.46 | 0.46 | 94 | 1012.3 |
| 20260906002508 | 73 | 165 | 0.9 | 2.6 | 0.00 | 0.46 | 0.46 | 94 | 1012.3 |
| 20260906002009 | 73 | 157 | 0.9 | 2.6 | 0.00 | 0.46 | 0.46 | 94 | 1012.1 |
| 20260906001519 | 73 | 166 | 1.7 | 2.6 | 0.00 | 0.46 | 0.46 | 94 | 1012.0 |
| 20260906001009 | 73 | 252 | 0.0 | 2.6 | 0.00 | 0.46 | 0.46 | 93 | 1011.9 |
| 20260906000508 | 73 | 231 | 0.9 | 2.6 | 0.00 | 0.46 | 0.46 | 93 | 1011.9 |
| 20260906000025 | 73 | 195 | 0.0 | 2.6 | 0.00 | 0.46 | 0.46 | 93 | 1011.9 |
| 20260905235510 | 73 | 250 | 0.9 | 2.6 | 0.00 | 0.46 | 0.46 | 93 | 1011.7 |
| 20260905235018 | 74 | 241 | 0.9 | 0.9 | 0.00 | 0.46 | 0.46 | 93 | 1011.6 |
| 20260905234527 | 74 | 206 | 0.0 | 0.9 | 0.00 | 0.46 | 0.46 | 93 | 1011.6 |
| 20260905234026 | 74 | 206 | 0.0 | 0.9 | 0.00 | 0.46 | 0.46 | 93 | 1011.5 |
| 20260905233516 | 74 | 131 | 0.0 | 0.0 | 0.00 | 0.46 | 0.46 | 93 | 1011.3 |
| 20260905233033 | 74 | 153 | 0.0 | 0.0 | 0.00 | 0.46 | 0.46 | 93 | 1011.3 |
| 20260905232505 | 74 | 153 | 0.0 | 0.0 | 0.00 | 0.46 | 0.46 | 93 | 1011.1 |
| 20260905232004 | 74 | 153 | 0.0 | 0.0 | 0.00 | 0.46 | 0.46 | 93 | 1011.0 |
| 20260905231515 | 74 | 153 | 0.0 | 0.0 | 0.00 | 0.46 | 0.46 | 92 | 1010.9 |
| 20260905231005 | 74 | 153 | 0.0 | 0.0 | 0.00 | 0.46 | 0.46 | 92 | 1010.8 |
| 20260905230519 | 74 | 153 | 0.0 | 0.9 | 0.00 | 0.46 | 0.46 | 92 | 1010.5 |
| 20260905230021 | 74 | 153 | 0.0 | 0.9 | 0.00 | 0.46 | 0.46 | 93 | 1010.6 |
| 20260905225508 | 74 | 126 | 0.0 | 0.9 | 0.00 | 0.46 | 0.46 | 93 | 1010.6 |
| 20260905225010 | 74 | 154 | 0.0 | 0.0 | 0.00 | 0.46 | 0.46 | 93 | 1010.7 |
| 20260905224527 | 74 | 154 | 0.0 | 0.0 | 0.00 | 0.46 | 0.46 | 93 | 1010.7 |
| 20260905224014 | 74 | 154 | 0.0 | 0.0 | 0.00 | 0.46 | 0.46 | 93 | 1010.4 |
| 20260905223513 | 74 | 154 | 0.0 | 0.0 | 0.00 | 0.46 | 0.46 | 92 | 1010.3 |
| 20260905223036 | 74 | 154 | 0.0 | 1.7 | 0.00 | 0.46 | 0.46 | 93 | 1010.3 |
| 20260905222517 | 74 | 154 | 0.0 | 1.7 | 0.00 | 0.46 | 0.46 | 93 | 1010.2 |
| 20260905222022 | 74 | 199 | 0.9 | 0.9 | 0.00 | 0.46 | 0.46 | 92 | 1010.2 |
| 20260905221532 | 74 | 226 | 0.0 | 0.9 | 0.00 | 0.46 | 0.46 | 93 | 1010.2 |
| 20260905221008 | 74 | 182 | 0.0 | 0.9 | 0.00 | 0.46 | 0.46 | 94 | 1010.2 |
| 20260905220507 | 73 | 198 | 0.0 | 0.9 | 0.00 | 0.46 | 0.46 | 94 | 1010.3 |
| 20260905220018 | 73 | 198 | 0.0 | 0.9 | 0.01 | 0.46 | 0.46 | 93 | 1010.1 |
| 20260905215511 | 73 | 198 | 0.0 | 0.0 | 0.01 | 0.46 | 0.46 | 93 | 1010.3 |
| 20260905215010 | 73 | 198 | 0.0 | 0.9 | 0.01 | 0.46 | 0.46 | 94 | 1010.5 |
| 20260905214505 | 73 | 198 | 0.0 | 0.9 | 0.01 | 0.46 | 0.46 | 93 | 1010.9 |
| 20260905214004 | 73 | 199 | 0.0 | 0.0 | 0.01 | 0.46 | 0.46 | 93 | 1011.1 |
| 20260905213504 | 72 | 198 | 0.0 | 0.0 | 0.01 | 0.46 | 0.46 | 93 | 1011.4 |
| 20260905213005 | 72 | 199 | 0.0 | 0.0 | 0.01 | 0.46 | 0.46 | 93 | 1011.6 |
| 20260905212503 | 72 | 198 | 0.0 | 0.0 | 0.01 | 0.46 | 0.46 | 93 | 1011.9 |
| 20260905212002 | 72 | 199 | 0.0 | 0.0 | 0.04 | 0.46 | 0.46 | 93 | 1012.0 |
| 20260905211517 | 73 | 198 | 0.0 | 0.0 | 0.17 | 0.46 | 0.46 | 93 | 1012.0 |
| 20260905211003 | 72 | 198 | 0.0 | 0.0 | 0.44 | 0.46 | 0.46 | 93 | 1012.0 |
| 20260905210518 | 72 | 199 | 0.0 | 0.9 | 0.46 | 0.46 | 0.46 | 92 | 1011.7 |
| 20260905210007 | 72 | 199 | 0.0 | 4.3 | 0.45 | 0.45 | 0.45 | 91 | 1011.6 |
| 20260905205504 | 72 | 232 | 1.7 | 4.3 | 0.45 | 0.45 | 0.45 | 90 | 1012.1 |
| 20260905205004 | 73 | 160 | 1.7 | 3.5 | 0.45 | 0.45 | 0.45 | 89 | 1012.4 |
| 20260905204506 | 73 | 65 | 2.6 | 3.5 | 0.45 | 0.45 | 0.45 | 88 | 1012.0 |
| 20260905204004 | 73 | 215 | 0.0 | 3.5 | 0.45 | 0.45 | 0.45 | 88 | 1012.5 |
| 20260905203514 | 73 | 200 | 0.0 | 6.1 | 0.45 | 0.45 | 0.45 | 87 | 1012.5 |
| 20260905203008 | 74 | 84 | 3.5 | 6.1 | 0.45 | 0.45 | 0.45 | 85 | 1012.5 |
| 20260905202504 | 74 | 37 | 3.5 | 7.8 | 0.45 | 0.45 | 0.45 | 85 | 1012.5 |
| 20260905202004 | 75 | 13 | 3.5 | 7.8 | 0.42 | 0.42 | 0.42 | 81 | 1013.0 |
| 20260905201507 | 78 | 349 | 2.6 | 7.8 | 0.29 | 0.29 | 0.29 | 75 | 1013.8 |
| 20260905201003 | 82 | 328 | 1.7 | 5.2 | 0.02 | 0.02 | 0.02 | 70 | 1012.7 |
| 20260905200518 | 86 | 175 | 1.7 | 7.8 | 0.00 | 0.00 | 0.00 | 64 | 1012.8 |
| 20260905200008 | 92 | 176 | 3.5 | 7.8 | 0.00 | 0.00 | 0.00 | 53 | 1012.2 |
| 20260905195506 | 95 | 243 | 0.0 | 1.7 | 0.00 | 0.00 | 0.00 | 51 | 1010.9 |
| 20260905195004 | 96 | 203 | 0.0 | 4.3 | 0.00 | 0.00 | 0.00 | 50 | 1010.3 |
| 20260905194505 | 96 | 201 | 0.0 | 4.3 | 0.00 | 0.00 | 0.00 | 49 | 1010.0 |
| 20260905194004 | 97 | 214 | 1.7 | 4.3 | 0.00 | 0.00 | 0.00 | 48 | 1009.9 |
| 20260905193505 | 98 | 250 | 1.7 | 4.3 | 0.00 | 0.00 | 0.00 | 47 | 1010.3 |
| 20260905193007 | 98 | 193 | 2.6 | 4.3 | 0.00 | 0.00 | 0.00 | 45 | 1010.2 |
| 20260905192504 | 99 | 74 | 0.9 | 5.2 | 0.00 | 0.00 | 0.00 | 45 | 1010.2 |
| 20260905192005 | 99 | 102 | 1.7 | 7.0 | 0.00 | 0.00 | 0.00 | 46 | 1010.3 |
| 20260905191509 | 99 | 165 | 3.5 | 7.0 | 0.00 | 0.00 | 0.00 | 44 | 1010.3 |
| 20260905191004 | 100 | 172 | 2.6 | 7.0 | 0.00 | 0.00 | 0.00 | 45 | 1010.2 |
| 20260905190502 | 99 | 184 | 1.7 | 4.3 | 0.00 | 0.00 | 0.00 | 49 | 1010.1 |
| 20260905190006 | 99 | 18 | 1.7 | 3.5 | 0.00 | 0.00 | 0.00 | 48 | 1010.2 |
| 20260905185503 | 99 | 240 | 1.7 | 4.3 | 0.00 | 0.00 | 0.00 | 48 | 1010.3 |
| 20260905185003 | 99 | 25 | 0.9 | 6.1 | 0.00 | 0.00 | 0.00 | 47 | 1010.3 |
| 20260905184511 | 99 | 56 | 1.7 | 6.1 | 0.00 | 0.00 | 0.00 | 44 | 1010.5 |
| 20260905184003 | 99 | 19 | 2.6 | 6.1 | 0.00 | 0.00 | 0.00 | 46 | 1010.7 |
| 20260905183515 | 100 | 27 | 1.7 | 3.5 | 0.00 | 0.00 | 0.00 | 44 | 1010.7 |
| 20260905183011 | 99 | 196 | 1.7 | 5.2 | 0.00 | 0.00 | 0.00 | 45 | 1010.7 |
| 20260905182504 | 99 | 136 | 1.7 | 5.2 | 0.00 | 0.00 | 0.00 | 46 | 1010.8 |
| 20260905182004 | 98 | 238 | 1.7 | 5.2 | 0.00 | 0.00 | 0.00 | 46 | 1010.9 |
| 20260905181510 | 97 | 212 | 2.6 | 4.3 | 0.00 | 0.00 | 0.00 | 48 | 1011.0 |
| 20260905181003 | 97 | 157 | 2.6 | 4.3 | 0.00 | 0.00 | 0.00 | 49 | 1011.1 |
| 20260905180522 | 97 | 195 | 0.9 | 4.3 | 0.00 | 0.00 | 0.00 | 49 | 1011.2 |
| 20260905180008 | 98 | 148 | 1.7 | 2.6 | 0.00 | 0.00 | 0.00 | 49 | 1011.4 |
| 20260905175503 | 98 | 184 | 1.7 | 2.6 | 0.00 | 0.00 | 0.00 | 49 | 1011.6 |
| 20260905175004 | 98 | 118 | 1.7 | 1.7 | 0.00 | 0.00 | 0.00 | 46 | 1011.7 |
| 20260905174511 | 97 | 201 | 0.9 | 2.6 | 0.00 | 0.00 | 0.00 | 53 | 1011.8 |
| 20260905174004 | 96 | 69 | 0.9 | 2.6 | 0.00 | 0.00 | 0.00 | 50 | 1012.0 |
| 20260905173514 | 96 | 352 | 1.7 | 2.6 | 0.00 | 0.00 | 0.00 | 50 | 1012.1 |
| 20260905173011 | 96 | 32 | 1.7 | 3.5 | 0.00 | 0.00 | 0.00 | 48 | 1012.2 |
| 20260905172504 | 96 | 37 | 1.7 | 3.5 | 0.00 | 0.00 | 0.00 | 53 | 1012.3 |
| 20260905172004 | 96 | 46 | 0.9 | 2.6 | 0.00 | 0.00 | 0.00 | 54 | 1012.3 |
| 20260905171526 | 96 | 121 | 0.9 | 3.5 | 0.00 | 0.00 | 0.00 | 52 | 1012.5 |
| 20260905171010 | 96 | 42 | 1.7 | 3.5 | 0.00 | 0.00 | 0.00 | 52 | 1012.5 |
| 20260905170519 | 97 | 41 | 0.9 | 3.5 | 0.00 | 0.00 | 0.00 | 51 | 1012.6 |
| 20260905170013 | 97 | 99 | 0.9 | 3.5 | 0.00 | 0.00 | 0.00 | 53 | 1012.7 |
| 20260905165503 | 96 | 26 | 1.7 | 5.2 | 0.00 | 0.00 | 0.00 | 54 | 1012.7 |
| 20260905165007 | 96 | 23 | 1.7 | 5.2 | 0.00 | 0.00 | 0.00 | 54 | 1012.8 |
| 20260905164513 | 95 | 52 | 0.9 | 5.2 | 0.00 | 0.00 | 0.00 | 52 | 1012.9 |
| 20260905164005 | 95 | 25 | 2.6 | 5.2 | 0.00 | 0.00 | 0.00 | 56 | 1012.8 |
| 20260905163516 | 96 | 40 | 2.6 | 4.3 | 0.00 | 0.00 | 0.00 | 57 | 1013.0 |
| 20260905163012 | 96 | 70 | 0.9 | 5.2 | 0.00 | 0.00 | 0.00 | 52 | 1013.0 |
| 20260905162503 | 95 | 123 | 0.9 | 5.2 | 0.00 | 0.00 | 0.00 | 54 | 1013.1 |
| 20260905162007 | 96 | 22 | 2.6 | 5.2 | 0.00 | 0.00 | 0.00 | 53 | 1013.1 |
| 20260905161517 | 96 | 21 | 2.6 | 4.3 | 0.00 | 0.00 | 0.00 | 55 | 1013.2 |
| 20260905161007 | 96 | 11 | 2.6 | 4.3 | 0.00 | 0.00 | 0.00 | 56 | 1013.2 |
| 20260905160507 | 96 | 115 | 0.9 | 2.6 | 0.00 | 0.00 | 0.00 | 55 | 1013.2 |
| 20260905160025 | 96 | 143 | 0.9 | 2.6 | 0.00 | 0.00 | 0.00 | 56 | 1013.3 |
| 20260905155506 | 95 | 54 | 0.9 | 3.5 | 0.00 | 0.00 | 0.00 | 55 | 1013.4 |
| 20260905155006 | 95 | 240 | 0.9 | 3.5 | 0.00 | 0.00 | 0.00 | 58 | 1013.6 |
| 20260905154504 | 95 | 143 | 0.9 | 3.5 | 0.00 | 0.00 | 0.00 | 59 | 1013.6 |
| 20260905154004 | 93 | 103 | 0.9 | 3.5 | 0.00 | 0.00 | 0.00 | 61 | 1013.6 |
| 20260905153505 | 94 | 58 | 0.9 | 3.5 | 0.00 | 0.00 | 0.00 | 59 | 1013.6 |
| 20260905153011 | 94 | 27 | 2.6 | 3.5 | 0.00 | 0.00 | 0.00 | 60 | 1013.6 |
| 20260905152504 | 94 | 124 | 0.9 | 2.6 | 0.00 | 0.00 | 0.00 | 59 | 1013.5 |
| 20260905152004 | 94 | 82 | 0.9 | 3.5 | 0.00 | 0.00 | 0.00 | 61 | 1013.6 |
| 20260905151505 | 94 | 204 | 1.7 | 3.5 | 0.00 | 0.00 | 0.00 | 61 | 1013.6 |
| 20260905151004 | 94 | 197 | 1.7 | 3.5 | 0.00 | 0.00 | 0.00 | 61 | 1013.6 |
| 20260905150504 | 94 | 159 | 1.7 | 3.5 | 0.00 | 0.00 | 0.00 | 61 | 1013.6 |
| 20260905150006 | 94 | 134 | 1.7 | 3.5 | 0.00 | 0.00 | 0.00 | 61 | 1013.7 |
| 20260905145503 | 94 | 124 | 1.7 | 3.5 | 0.00 | 0.00 | 0.00 | 62 | 1013.7 |
| 20260905145004 | 94 | 242 | 1.7 | 2.6 | 0.00 | 0.00 | 0.00 | 60 | 1013.7 |
| 20260905144507 | 93 | 133 | 0.9 | 2.6 | 0.00 | 0.00 | 0.00 | 62 | 1013.6 |
| 20260905144004 | 93 | 76 | 0.9 | 4.3 | 0.00 | 0.00 | 0.00 | 63 | 1013.7 |
| 20260905143504 | 93 | 50 | 0.9 | 4.3 | 0.00 | 0.00 | 0.00 | 62 | 1013.7 |
| 20260905143009 | 93 | 107 | 0.9 | 2.6 | 0.00 | 0.00 | 0.00 | 62 | 1013.7 |
| 20260905142504 | 92 | 191 | 0.9 | 3.5 | 0.00 | 0.00 | 0.00 | 63 | 1013.8 |
| 20260905142005 | 92 | 243 | 0.9 | 3.5 | 0.00 | 0.00 | 0.00 | 64 | 1013.7 |
| 20260905141507 | 91 | 212 | 0.9 | 3.5 | 0.00 | 0.00 | 0.00 | 66 | 1013.7 |
| 20260905141006 | 91 | 205 | 1.7 | 3.5 | 0.00 | 0.00 | 0.00 | 65 | 1013.7 |
| 20260905140503 | 91 | 188 | 1.7 | 2.6 | 0.00 | 0.00 | 0.00 | 66 | 1013.7 |
| 20260905140010 | 90 | 150 | 0.9 | 3.5 | 0.00 | 0.00 | 0.00 | 67 | 1013.8 |
| 20260905135504 | 89 | 165 | 0.9 | 3.5 | 0.00 | 0.00 | 0.00 | 68 | 1013.9 |
| 20260905135004 | 89 | 134 | 1.7 | 3.5 | 0.00 | 0.00 | 0.00 | 69 | 1013.9 |
| 20260905134508 | 89 | 248 | 1.7 | 3.5 | 0.00 | 0.00 | 0.00 | 70 | 1013.9 |
| 20260905134008 | 89 | 153 | 1.7 | 3.5 | 0.00 | 0.00 | 0.00 | 70 | 1013.9 |
| 20260905133506 | 89 | 252 | 1.7 | 2.6 | 0.00 | 0.00 | 0.00 | 69 | 1014.0 |
| 20260905133009 | 88 | 105 | 0.9 | 4.3 | 0.00 | 0.00 | 0.00 | 72 | 1014.1 |
| 20260905132504 | 87 | 132 | 0.9 | 4.3 | 0.00 | 0.00 | 0.00 | 71 | 1014.1 |
| 20260905132008 | 87 | 146 | 1.7 | 3.5 | 0.00 | 0.00 | 0.00 | 73 | 1014.0 |
| 20260905131510 | 87 | 163 | 1.7 | 4.3 | 0.00 | 0.00 | 0.00 | 74 | 1014.1 |
| 20260905131003 | 86 | 160 | 1.7 | 4.3 | 0.00 | 0.00 | 0.00 | 73 | 1014.1 |
| 20260905130503 | 86 | 153 | 1.7 | 4.3 | 0.00 | 0.00 | 0.00 | 73 | 1014.1 |
| 20260905130015 | 86 | 172 | 0.9 | 5.2 | 0.00 | 0.00 | 0.00 | 74 | 1014.1 |
| 20260905125505 | 86 | 173 | 1.7 | 5.2 | 0.00 | 0.00 | 0.00 | 75 | 1014.1 |
| 20260905125004 | 86 | 158 | 1.7 | 3.5 | 0.00 | 0.00 | 0.00 | 75 | 1014.2 |
| 20260905124512 | 86 | 228 | 0.9 | 2.6 | 0.00 | 0.00 | 0.00 | 76 | 1014.2 |
| 20260905124004 | 85 | 177 | 0.9 | 3.5 | 0.00 | 0.00 | 0.00 | 76 | 1014.2 |
| 20260905123506 | 85 | 183 | 0.9 | 3.5 | 0.00 | 0.00 | 0.00 | 76 | 1014.2 |
| 20260905123008 | 84 | 127 | 0.9 | 3.5 | 0.00 | 0.00 | 0.00 | 77 | 1014.1 |
| 20260905122511 | 84 | 151 | 1.7 | 4.3 | 0.00 | 0.00 | 0.00 | 78 | 1014.1 |
| 20260905122005 | 83 | 172 | 1.7 | 5.2 | 0.00 | 0.00 | 0.00 | 78 | 1014.1 |
| 20260905121510 | 83 | 130 | 1.7 | 5.2 | 0.00 | 0.00 | 0.00 | 79 | 1014.1 |
| 20260905121004 | 83 | 159 | 1.7 | 4.3 | 0.00 | 0.00 | 0.00 | 79 | 1014.1 |
| 20260905120505 | 83 | 159 | 0.9 | 2.6 | 0.00 | 0.00 | 0.00 | 80 | 1014.1 |
| 20260905120010 | 82 | 202 | 0.9 | 2.6 | 0.00 | 0.00 | 0.00 | 81 | 1014.0 |
| 20260905115506 | 82 | 240 | 0.9 | 3.5 | 0.00 | 0.00 | 0.00 | 82 | 1013.9 |
| 20260905115003 | 82 | 197 | 0.9 | 3.5 | 0.00 | 0.00 | 0.00 | 83 | 1013.9 |
| 20260905114513 | 81 | 164 | 0.0 | 1.7 | 0.00 | 0.00 | 0.00 | 84 | 1013.8 |
| 20260905114005 | 80 | 132 | 0.9 | 1.7 | 0.00 | 0.00 | 0.00 | 85 | 1013.8 |